Wind_Speed
3 5 1 7 5 5 5 3 6 6 5 5 7 5 5 17 18 17 24 26 27 28 24 27 29 28 27 28 28 27 24 22 21 21 12 12 18 18 16 16 15 16 12 12
6 3 6 4 4 5 5 2 4 2 4 5 5 3 1 8 15 18 21 26 30 28 26 25 23 24 26 25 25 27 26 22 21 22 22 23 15 14 15 13 13 14 14 13
4 5 5 2 0 4 3 2 2 3 2 4 6 6 7 4 6 15 21 26 27 31 29 25 23 22 23 23 23 21 25 24 20 20 24 21 24 21 16 16 14 13 14 13
3 3 3 4 4 5 1 6 3 5 4 3 4 3 4 5 8 5 13 27 31 29 26 26 19 19 23 23 21 21 22 22 23 23 24 25 27 28 20 17 16 15 14 13
6 2 3 5 3 5 8 2 3 3 5 3 8 5 6 5 6 4 8 9 21 18 18 17 18 21 19 19 19 18 23 24 23 22 23 25 25 27 30 28 22 19 18 15
6 4 4 7 1 4 3 4 7 5 4 3 4 4 5 4 4 5 4 8 4 10 5 6 10 13 12 14 14 17 18 23 26 26 22 17 23 24 25 24 26 19 20 17
5 5 3 3 1 1 4 7 4 4 5 4 1 2 6 6 4 4 7 9 4 7 10 9 7 4 5 7 10 14 15 20 22 25 21 23 25 26 24 21 22 21 23 21
3 4 4 3 6 7 2 7 6 4 3 4 2 1 4 5 6 5 2 8 10 10 9 6 1 10 6 12 16 18 20 21 20 22 22 20 34 34 26 22 24 24 22 18
4 5 5 2 3 6 3 2 4 8 3 2 2 3 6 5 6 4 6 8 21 24 21 13 10 12 13 12 7 13 12 8 8 13 19 19 18 14 15 13 16 21 19 19
3 2 1 4 2 7 3 6 4 4 4 3 5 4 5 6 8 6 9 17 14 11 18 12 9 7 7 9 10 6 7 11 12 12 12 18 15 12 17 19 18 21 20 19
5 3 7 3 5 1 2 2 7 6 3 5 2 6 5 8 8 10 15 16 9 7 11 13 14 8 6 11 8 6 7 10 5 12 13 15 16 15 16 19 19 21 18 18
5 5 0 1 6 3 3 4 4 5 3 2 2 5 3 7 9 2 11 9 5 4 8 10 6 5 6 8 8 11 12 12 8 8 11 13 14 14 14 17 19 16 17 18
8 1 3 7 7 4 6 3 4 6 3 5 5 5 6 7 3 6 8 9 4 4 5 4 2 2 2 3 5 8 12 12 8 8 9 9 9 10 10 9 8 10 13 14
10 4 6 7 6 4 3 2 3 4 4 5 5 3 5 7 4 1 1 1 2 2 4 5 3 6 7 6 7 7 5 9 12 11 11 11 8 7 9 13 10 8 9 10
5 4 3 4 5 6 3 2 2 2 1 4 5 5 3 4 3 8 11 12 12 12 10 9 10 8 9 8 8 10 12 14 15 17 19 19 17 15 18 21 19 17 16 15
2 3 3 5 8 8 6 5 4 5 3 5 7 5 2 9 19 22 21 23 22 18 15 12 12 10 10 11 10 9 10 14 16 20 24 25 23 25 22 21 20 22 23 22
4 5 3 1 3 4 3 4 2 3 3 2 4 4 2 7 15 16 17 17 16 14 11 11 12 13 14 15 16 18 18 20 19 19 19 21 25 26 28 26 25 23 22 21
6 5 3 3 4 1 4 3 7 8 4 4 10 6 8 14 17 16 14 12 10 9 11 14 16 17 17 19 20 21 21 22 22 21 22 23 25 29 30 31 29 28 27 25
5 5 4 4 2 2 4 6 4 3 2 3 7 10 16 18 14 11 7 7 7 8 11 14 16 19 22 23 24 25 26 26 26 26 26 25 24 26 28 31 33 32 33 32
7 7 5 3 5 7 5 2 4 7 2 10 11 10 7 9 2 3 2 2 6 10 14 19 22 23 22 22 21 21 21 21 21 21 23 27 30 31 31 29 31 35 35 35
4 4 5 2 2 5 4 3 8 4 6 16 11 8 5 3 3 4 1 7 12 16 19 20 19 20 21 22 20 21 21 21 22 24 24 25 26 27 29 31 31 29 28 29
4 5 2 3 3 5 6 5 7 5 15 15 11 6 5 5 2 2 7 10 13 16 18 16 18 21 22 21 23 26 27 28 28 28 30 30 29 27 27 28 30 31 35 37
1 5 5 5 4 2 3 4 7 14 19 12 9 7 5 5 1 4 7 11 14 15 16 14 16 19 20 18 21 22 25 28 31 33 33 31 30 29 28 28 28 28 28 32
2 2 4 3 2 3 13 15 12 12 13 10 8 7 4 2 2 7 10 12 11 12 12 14 16 19 19 22 23 25 29 34 37 35 34 32 31 29 29 28 27 27 26 26
4 5 5 1 1 4 6 13 16 14 13 11 8 4 2 4 7 7 8 9 10 10 11 15 18 21 24 25 27 30 34 36 34 34 35 34 32 31 29 25 27 23 25 24
7 7 5 6 18 7 13 17 15 13 12 8 3 1 4 6 7 7 7 8 9 11 14 17 19 22 24 26 28 33 36 33 33 35 35 32 30 29 28 26 22 19 19 19
Wind_Direction
24 51 286 249 190 203 252 191 224 266 200 131 190 254 250 194 199 203 207 215 218 226 234 239 241 245 246 247 245 242 240 244 241 236 246 289 259 257 266 283 281 272 266 264
19 291 241 218 177 201 233 275 290 296 102 101 174 207 304 200 223 216 210 218 223 232 234 240 243 243 247 252 251 249 244 250 250 249 250 263 286 276 269 280 280 281 283 271
155 236 316 286 202 348 338 201 283 109 69 66 109 347 346 3 206 232 230 231 230 234 238 241 241 244 249 251 242 253 250 253 262 261 253 261 274 298 303 300 307 306 291 281
258 300 274 22 325 135 267 199 153 107 77 205 38 228 301 317 289 258 245 230 234 235 240 249 253 250 251 254 247 253 250 252 261 264 265 264 273 284 297 301 301 300 289 278
239 241 359 349 202 167 231 136 78 59 80 76 357 83 269 347 304 337 338 259 233 230 240 245 249 255 254 255 253 262 252 246 247 256 266 260 267 277 283 287 291 288 290 281
225 256 218 208 65 178 124 85 46 56 76 40 284 119 301 270 274 318 13 55 125 129 108 225 246 255 250 245 252 261 253 251 254 254 259 275 267 274 280 280 279 281 285 281
320 261 290 177 207 75 78 56 358 13 17 214 133 65 226 269 268 240 306 35 143 120 122 146 180 235 249 240 240 256 255 261 257 250 252 268 280 267 266 271 279 275 278 276
140 334 194 181 193 182 100 147 152 175 200 262 288 222 251 255 309 286 297 111 130 136 137 138 1 358 332 244 249 270 278 281 258 254 261 250 291 269 261 267 276 270 265 274
138 277 287 206 177 129 178 131 161 105 356 49 285 281 318 324 302 303 229 186 154 149 123 99 64 32 20 11 324 292 286 280 285 313 277 297 303 285 268 283 299 292 275 280
176 348 297 275 125 42 131 151 75 17 133 220 302 280 239 228 246 245 248 220 197 101 100 114 100 73 42 38 5 335 268 289 293 310 297 299 312 265 297 281 290 295 283 276
142 119 287 32 19 214 55 54 55 111 104 155 180 268 223 228 209 216 234 205 201 80 91 83 99 102 68 26 20 359 329 334 301 321 319 314 320 317 310 298 296 285 275 276
192 139 191 233 299 273 102 118 118 118 215 51 139 271 346 268 214 216 252 239 281 39 110 86 116 118 63 16 350 350 360 337 331 318 311 313 319 322 311 302 287 277 271 271
179 225 59 353 347 356 57 49 97 108 103 186 140 261 9 359 198 187 196 220 285 81 86 68 124 123 33 298 312 317 345 343 333 342 344 335 316 316 325 334 312 290 275 274
124 99 160 182 195 147 99 79 117 105 114 168 222 285 349 347 345 156 285 148 158 291 21 18 6 340 315 315 254 262 332 330 312 308 316 318 310 304 340 338 337 336 324 303
108 116 105 57 84 80 80 4 52 9 184 152 194 145 344 328 345 85 94 79 67 54 46 25 6 1 360 353 336 314 314 291 280 289 294 293 295 295 301 310 308 313 315 317
40 145 130 53 50 93 72 32 47 55 89 68 113 65 317 76 89 83 83 85 76 66 61 49 38 26 16 359 347 336 320 327 282 273 279 278 283 291 286 283 278 282 293 296
77 124 86 156 22 56 24 334 8 50 19 164 148 160 170 57 66 72 77 76 69 53 35 19 8 357 349 335 322 304 297 293 292 291 289 271 271 274 273 275 280 281 284 286
117 93 61 110 36 142 278 14 107 106 34 61 108 109 113 108 93 81 72 68 56 28 4 353 340 332 322 311 301 296 295 289 288 286 282 279 274 270 265 265 264 268 273 273
68 108 65 112 81 324 304 242 203 136 345 357 126 137 136 116 95 56 48 38 19 355 341 329 326 322 316 312 310 307 301 295 289 284 280 277 277 274 269 266 264 262 263 264
61 73 104 116 126 191 244 171 165 124 272 191 173 177 170 160 182 202 135 16 349 340 333 327 323 323 322 321 317 317 318 321 319 316 306 293 282 277 276 271 261 261 259 257
25 20 112 112 143 288 239 160 155 104 236 168 173 162 157 146 146 135 343 327 330 330 331 329 329 333 337 335 330 327 332 331 324 318 314 314 311 297 281 275 270 266 265 264
153 126 146 96 93 255 171 110 158 182 140 152 157 143 109 107 129 287 310 325 330 330 329 330 335 339 340 333 326 326 329 326 320 314 308 309 310 303 295 287 277 273 272 272
125 173 176 168 205 295 228 245 169 152 147 145 146 144 158 161 199 319 328 332 334 339 344 342 346 343 334 332 335 342 341 337 331 322 315 308 296 288 293 294 289 279 274 273
32 137 94 96 291 55 122 133 143 148 146 147 147 152 153 123 353 334 338 344 351 350 346 352 354 346 354 351 349 348 343 337 335 332 329 327 317 302 286 281 285 288 283 286
186 122 130 58 298 119 169 158 147 141 143 143 134 117 46 355 347 354 3 357 360 358 358 2 353 349 352 352 352 350 346 345 343 338 334 330 326 321 316 301 272 280 284 284
187 165 162 213 188 165 170 159 156 153 149 143 129 54 359 1 18 33 32 29 23 16 12 7 360 357 355 354 354 355 352 349 346 341 340 335 329 324 320 315 302 264 282 288
Height
1489 1497 1507 1500 1500 1498 1500 1507 1509 1495 1486 1492 1499 1500 1497 1497 1500 1500 1501 1504 1508 1508 1511 1515 1519 1522 1524 1526 1529 1532 1535 1537 1540 1542 1542 1541 1541 1542 1542 1542 1544 1545 1544 1544
1496 1503 1492 1493 1494 1497 1500 1500 1500 1487 1484 1492 1501 1502 1500 1498 1498 1499 1499 1502 1505 1507 1510 1511 1516 1519 1521 1522 1525 1528 1532 1536 1539 1541 1543 1543 1543 1543 1542 1541 1541 1542 1542 1543
1499 1493 1489 1490 1493 1495 1495 1499 1493 1492 1490 1492 1501 1514 1506 1499 1498 1499 1499 1501 1504 1504 1507 1512 1514 1516 1518 1519 1521 1525 1530 1534 1537 1539 1540 1539 1540 1540 1540 1541 1541 1541 1541 1541
1493 1488 1489 1489 1491 1493 1502 1487 1486 1492 1502 1520 1502 1540 1515 1507 1499 1495 1496 1496 1498 1501 1507 1508 1508 1515 1514 1517 1523 1525 1526 1530 1535 1536 1536 1538 1537 1536 1536 1538 1539 1540 1539 1539
1498 1490 1489 1493 1488 1488 1496 1482 1487 1492 1508 1511 1519 1533 1521 1509 1501 1498 1497 1496 1498 1503 1506 1508 1511 1512 1516 1519 1522 1525 1524 1523 1525 1526 1526 1528 1529 1530 1532 1533 1536 1537 1537 1535
1489 1484 1483 1482 1480 1483 1483 1489 1500 1510 1520 1541 1525 1530 1529 1519 1505 1502 1499 1500 1499 1504 1506 1507 1510 1511 1515 1518 1522 1521 1521 1521 1519 1520 1521 1523 1523 1524 1527 1528 1530 1531 1532 1532
1492 1483 1476 1477 1485 1483 1488 1506 1540 1537 1546 1543 1525 1528 1523 1506 1501 1500 1498 1499 1499 1504 1506 1507 1509 1512 1515 1517 1519 1518 1517 1516 1516 1517 1518 1518 1517 1515 1520 1524 1525 1526 1528 1530
1509 1507 1481 1473 1479 1488 1491 1502 1537 1542 1553 1541 1523 1528 1518 1502 1500 1500 1498 1498 1499 1502 1505 1506 1508 1510 1512 1514 1515 1514 1514 1514 1514 1515 1517 1517 1517 1513 1514 1521 1522 1521 1523 1526
1508 1500 1476 1473 1474 1476 1493 1506 1502 1537 1543 1540 1535 1519 1509 1503 1501 1501 1500 1500 1496 1494 1497 1501 1506 1509 1510 1511 1512 1512 1513 1513 1514 1515 1515 1519 1515 1512 1515 1518 1518 1519 1518 1521
1490 1504 1478 1476 1474 1478 1480 1491 1513 1528 1544 1545 1541 1533 1525 1510 1503 1501 1500 1497 1497 1500 1497 1498 1500 1510 1512 1512 1512 1513 1514 1514 1514 1514 1512 1513 1512 1512 1513 1512 1513 1516 1516 1515
1486 1497 1491 1478 1488 1490 1492 1501 1514 1522 1534 1549 1551 1536 1506 1503 1500 1499 1496 1497 1499 1496 1497 1500 1501 1511 1512 1513 1514 1515 1515 1514 1513 1512 1510 1510 1511 1509 1508 1509 1509 1511 1510 1510
1481 1500 1507 1495 1486 1484 1484 1495 1505 1526 1532 1547 1542 1528 1499 1497 1497 1499 1500 1500 1502 1501 1502 1503 1507 1512 1513 1515 1516 1516 1514 1514 1513 1513 1511 1509 1509 1508 1507 1506 1508 1507 1507 1506
1478 1500 1518 1511 1498 1487 1493 1496 1506 1513 1523 1536 1538 1525 1500 1497 1496 1498 1499 1500 1500 1502 1504 1508 1512 1515 1517 1518 1518 1518 1515 1514 1512 1511 1510 1509 1510 1508 1507 1506 1505 1504 1504 1502
1468 1499 1502 1518 1504 1498 1497 1496 1502 1506 1525 1530 1528 1514 1507 1505 1502 1500 1501 1502 1504 1505 1507 1510 1513 1516 1516 1517 1518 1519 1515 1515 1513 1510 1508 1507 1507 1506 1504 1504 1504 1502 1500 1498
1470 1496 1492 1496 1493 1497 1503 1503 1500 1504 1508 1511 1512 1513 1509 1506 1504 1503 1504 1505 1507 1510 1511 1513 1515 1515 1515 1515 1516 1516 1514 1514 1512 1509 1506 1504 1504 1502 1500 1500 1499 1498 1496 1496
1472 1496 1492 1501 1498 1499 1509 1506 1502 1504 1509 1511 1513 1517 1511 1509 1507 1506 1508 1508 1511 1513 1515 1516 1516 1515 1514 1514 1513 1512 1510 1509 1507 1506 1506 1505 1503 1500 1497 1495 1493 1492 1492 1490
1478 1492 1502 1506 1505 1500 1514 1514 1511 1511 1510 1508 1516 1515 1513 1512 1510 1511 1512 1512 1513 1514 1516 1516 1516 1514 1512 1512 1510 1509 1507 1506 1504 1502 1500 1500 1499 1497 1495 1493 1490 1488 1486 1486
1481 1495 1506 1517 1511 1527 1517 1508 1507 1512 1512 1510 1510 1514 1514 1515 1515 1516 1516 1515 1515 1516 1515 1514 1513 1512 1511 1510 1509 1507 1505 1502 1499 1496 1494 1492 1489 1487 1486 1485 1483 1482 1482 1481
1470 1489 1517 1522 1539 1523 1515 1509 1508 1509 1518 1513 1513 1515 1515 1515 1515 1518 1517 1516 1517 1518 1517 1517 1514 1511 1509 1506 1502 1498 1495 1493 1490 1489 1486 1484 1481 1479 1477 1476 1475 1475 1474 1474
1478 1481 1498 1524 1528 1534 1508 1500 1500 1503 1524 1510 1512 1513 1514 1517 1522 1521 1520 1520 1518 1517 1515 1511 1508 1506 1503 1499 1496 1493 1490 1487 1483 1480 1478 1475 1473 1471 1469 1466 1464 1465 1464 1463
1497 1502 1510 1520 1519 1512 1500 1499 1501 1520 1518 1505 1509 1512 1514 1516 1517 1518 1518 1517 1516 1513 1510 1508 1506 1503 1500 1496 1492 1487 1485 1481 1478 1474 1471 1468 1465 1461 1459 1457 1456 1454 1454 1453
1493 1505 1513 1520 1518 1513 1497 1499 1506 1502 1502 1505 1509 1510 1511 1513 1515 1516 1516 1515 1514 1512 1509 1507 1504 1501 1497 1493 1488 1483 1479 1474 1470 1467 1463 1459 1456 1453 1450 1447 1445 1444 1444 1443
1496 1494 1500 1503 1505 1497 1496 1496 1495 1498 1500 1505 1508 1510 1512 1513 1515 1515 1515 1514 1512 1510 1508 1506 1503 1499 1495 1490 1485 1480 1474 1469 1464 1459 1454 1449 1446 1443 1441 1438 1435 1433 1433 1431
1488 1488 1497 1499 1499 1498 1497 1498 1499 1501 1503 1506 1509 1511 1512 1513 1514 1514 1513 1511 1510 1508 1506 1502 1499 1495 1491 1486 1481 1477 1471 1465 1458 1451 1445 1439 1435 1431 1429 1428 1427 1425 1423 1422
1485 1487 1497 1501 1499 1499 1499 1499 1500 1502 1505 1507 1509 1511 1511 1511 1511 1511 1511 1510 1509 1507 1503 1500 1496 1492 1487 1482 1478 1473 1467 1460 1453 1447 1440 1434 1429 1424 1420 1417 1417 1416 1415 1414
1478 1484 1491 1492 1484 1489 1494 1498 1501 1503 1505 1508 1509 1510 1510 1510 1510 1510 1510 1509 1507 1505 1502 1498 1495 1490 1486 1481 1476 1469 1462 1456 1450 1442 1435 1429 1423 1418 1414 1410 1406 1407 1407 1407